Regional Weather Roundup
Issued by NWS

Home | Current Version | Previous Version | Text Only | Print | Product List | Glossary On
Versions: 1 2 3 4 5 6 7 8 9 10 11 12 13 14 15 16 17 18 19 20 21 22 23 24 25 26 27 28 29 30 31 32 33 34 35 36 37 38 39 40 41 42 43 44 45 46 47 48 49 50
000
ASUS43 KMPX 021410
RWRMN
WEATHER ROUNDUP FOR MINNESOTA
NATIONAL WEATHER SERVICE TWIN CITIES/CHANHASSEN MN
900 AM CDT THU JUL 02 2015


NOTE: "FAIR" INDICATES FEW OR NO CLOUDS BELOW 12,000 FEET WITH NO
SIGNIFICANT WEATHER AND/OR OBSTRUCTIONS TO VISIBILITY. N/A MEANS
CURRENT SKY AND/OR WEATHER CONDITIONS ARE NOT AVAILABLE.

MNZ060>063-068>070-021500-
   Twin Cities Metro

CITY           SKY/WX    TMP DP  RH WIND       PRES   REMARKS
TWIN CITIES    MOSUNNY   67  54  63 CALM      30.04S
ST PAUL        SUNNY     65  56  72 CALM      30.05S
CRYSTAL        SUNNY     66  52  60 CALM      30.03F
BLAINE         SUNNY     66  55  68 CALM      30.04S
LAKEVILLE      SUNNY     63  55  77 CALM      30.04F
EDEN PRAIRIE   SUNNY     64  55  72 CALM      30.04R
SOUTH ST PAUL  SUNNY     64  55  70 CALM      30.04S
LAKE ELMO      FAIR      64  59  82 CALM      30.05S
$$
MNZ001>005-007-008-013>017-022>024-027-028-021500-
   Northwest Minnesota

CITY           SKY/WX    TMP DP  RH WIND       PRES   REMARKS
BEMIDJI        MOSUNNY   65  57  76 SW6       30.02S
ROSEAU         SUNNY     64  57  77 S7        29.97S
WARROAD        SUNNY     64  59  82 SW7       29.98S
THIEF RVR FALL SUNNY     63  55  77 S9        29.99S
CROOKSTON      SUNNY     63  55  77 S10       29.99S
FOSSTON        SUNNY     63  55  77 S6        30.02S
DETROIT LAKES  SUNNY     64  54  68 S9        30.03F
MOORHEAD       SUNNY     63  54  72 S8        30.01R
PARK RAPIDS    MOSUNNY   65  54  67 SW7       30.04R
$$
MNZ006-009>011-018-025>026-021500-
   North Central Minnesota

CITY           SKY/WX    TMP DP  RH WIND       PRES   REMARKS
BAUDETTE       SUNNY     67  55  65 SW5       29.97S
FLAG ISLAND    MOSUNNY   66  57  72 SW13      29.94S
INTL FALLS     SUNNY     65  59  81 VRB5      29.99R
WASKISH        SUNNY     68  61  77 SW6       30.00S
BIG FORK       SUNNY     66  61  82 SW5       30.02S
LONGVILLE      PTSUNNY   66  59  77 S5        30.03S
GRAND RAPIDS   MOSUNNY   66  55  68 W3        30.04R
CRANE LAKE     PTSUNNY   63  59  88 SW1       30.01S
ORR            MOSUNNY   61  57  88 CALM      29.98S
COOK           SUNNY     64  61  88 W3        30.01F
$$
MNZ012-019>021-037-021500-
   Northeast Minnesota

CITY           SKY/WX    TMP DP  RH WIND       PRES   REMARKS
DULUTH         MOSUNNY   68  57  68 W7        30.03S
ELY            PTSUNNY   61  55  82 S5        30.01S
HIBBING        CLOUDY    64  59  83 CALM      30.02S
DULUTH HARBOR  SUNNY     64  57  77 SW3       30.03S
TWO HARBORS    SUNNY     66  59  77 SW2       30.00F
SILVER BAY     SUNNY     64  55  72 CALM      30.00F
GRAND MARAIS     N/A     52  47  83 SW7       30.01F
G MARAIS ARPRT SUNNY     61  50  67 CALM      30.03F
$$
MNZ029>031-032-039>041-046>048-054>057-064-021500-
   West Central Minnesota

CITY           SKY/WX    TMP DP  RH WIND       PRES   REMARKS
FERGUS FALLS   SUNNY     64  54  68 S9        30.03R
WHEATON        SUNNY     61  54  77 SE8       30.02F
MORRIS         MOSUNNY   63  55  77 SE8       30.02S
ALEXANDRIA     SUNNY     63  54  72 S7        30.05S
ELBOW LAKE     FAIR      62  53  72 S9        30.02F
WADENA           N/A     64  54  68 SW6       30.03S
GLENWOOD       MOSUNNY   64  55  72 S7        30.05S
APPLETON       MOSUNNY   64  54  68 SE7       30.02S
BENSON         MOSUNNY   63  52  67 S3        30.03F
ORTONVILLE     MOSUNNY   61  54  77 SE6       30.01S
MADISON        MOSUNNY   61  54  77 SE7       30.01F
WILLMAR        FAIR      63  55  77 SE5       30.05S
$$
MNZ033>034-036-042>043-049>051-058-059-021500-
   Central Minnesota

CITY           SKY/WX    TMP DP  RH WIND       PRES   REMARKS
ST CLOUD       SUNNY     65  54  67 S3        30.04S
SAUK CENTRE    FAIR      63  56  79 S3        30.05S
PAYNESVILLE    MOSUNNY   62  53  73 SE5       30.05S
AITKIN         SUNNY     70  57  64 SW3       30.03S
PINE RIVER       N/A     64  55  72 S3        30.07R
BRAINERD       PTSUNNY   67  54  63 VRB5      30.04S
STAPLES        PTSUNNY   63  54  72 S5        30.04S
LONG PRAIRIE   FAIR      61  54  77 CALM      30.05S
LITTLE FALLS   SUNNY     63  52  67 CALM      30.05R
LITCHFIELD     MOSUNNY   66  55  68 SE3       30.05R
BUFFALO        SUNNY     63  51  65 CALM      30.06R
MAPLE LAKE     SUNNY     64  55  71 SW3       30.06R
$$
MNZ037-044-045-052-053-021500-
   East Central Minnesota

CITY           SKY/WX    TMP DP  RH WIND       PRES   REMARKS
PRINCETON      SUNNY     66  55  68 CALM      30.05S
MORA           SUNNY     63  59  88 CALM      30.06S
CAMBRIDGE      SUNNY     66  55  68 CALM      30.02F
RUSH CITY      SUNNY     63  57  81 CALM      30.05S
MOOSE LAKE     SUNNY     61  61 100 CALM      30.03R
HINCKLEY       FAIR      63  59  88 CALM      30.05S
CLOQUET        SUNNY     64  55  72 CALM      30.03F
MCGREGOR       SUNNY     66  59  77 CALM      30.04S
$$
MNZ071>073-080-081-089-090-097-098-021500-
   Southwest Minnesota

CITY           SKY/WX    TMP DP  RH WIND       PRES   REMARKS
MONTEVIDEO     MOSUNNY   64  55  72 S6        30.04S
GRANITE FALLS  MOSUNNY   61  53  74 CALM      30.05S
CANBY          PTSUNNY   56  54  92 SE7       30.02F
MARSHALL       PTSUNNY   61  52  72 SE7       30.01F
REDWOOD FALLS  PTSUNNY   63  54  72 SE6       30.04R
OLIVIA         MOSUNNY   59  50  72 SE5       30.03S
PIPESTONE      CLOUDY    59  54  82 SE5       30.01F
WINDOM         CLOUDY    61  52  72 CALM      30.04S
WORTHINGTON    CLOUDY    59  50  72 SE6       30.03S
JACKSON        CLOUDY    61  54  77 E6        30.04R
TRACY          CLOUDY    61  55  78 SE5       30.03F
SLAYTON        CLOUDY    57  54  89 CALM      30.03F
$$
MNZ065>067-074>077-082>085-091>093-021500-
   South Central Minnesota

CITY           SKY/WX    TMP DP  RH WIND       PRES   REMARKS
MANKATO        SUNNY     63  54  72 SE8       30.04F
NEW ULM        MOSUNNY   63  55  77 SE7       30.04S
ST JAMES       PTSUNNY   61  55  82 CALM      30.05S
FAIRMONT       PTSUNNY   61  52  72 SE6       30.03S
GLENCOE        SUNNY     65  56  72 SE3       30.04S
FARIBAULT      SUNNY     63  57  82 CALM      30.05S
OWATONNA       SUNNY     64  57  77 CALM      30.05S
WASECA         MOSUNNY   63  54  72 SE3       30.06S
ALBERT LEA     MOSUNNY   63  54  72 E3        30.04R
$$
MNZ078>079-086>088-094>096-021500-
   Southeast Minnesota

CITY           SKY/WX    TMP DP  RH WIND       PRES   REMARKS
ROCHESTER      SUNNY     63  56  78 NE3       30.06S
RED WING       SUNNY     63  57  82 CALM      30.03S
STANTON        SUNNY     61  57  88 CALM      30.03F
DODGE CENTER   SUNNY     63  57  82 CALM      30.05R
WINONA         CLOUDY    55  55 100 CALM      30.05R FOG
AUSTIN         MOSUNNY   61  55  82 CALM      30.05R
PRESTON        SUNNY     58  53  80 E3        30.06R
$$
ABBREVIATIONS USED IN REMARKS
   TC - TEMPERATURES IN CELSIUS
  WCI - WIND CHILL INDEX
   HX - HEAT INDEX
  VSB - VISIBILITY
$$



USA.gov is the U.S. government's official web portal to all federal, state and local government web resources and services.